Regional Weather Roundup
Issued by NWS

Home | Current Version | Previous Version | Graphics & Text | Print | Product List | Glossary On
Versions: 1 2 3 4 5 6 7 8 9 10 11 12 13 14 15 16 17 18 19 20 21 22 23 24 25 26 27
000
ASUS45 KCYS 180110
RWRWY

WYOMING REGIONAL WEATHER ROUNDUP
NATIONAL WEATHER SERVICE CHEYENNE WY
600 PM MST TUE JAN 17 2017

NOTE:  "FAIR" INDICATES FEW OR NO CLOUDS BELOW 12,000 FEET
WITH NO SIGNIFICANT WEATHER AND/OR OBSTRUCTIONS TO VISIBILITY.

WYZ001-180200-
YELLOWSTONE NATIONAL PARK

CITY           SKY/WX    TMP DP  RH WIND       PRES   REMARKS
LK YELLOWSTONE   N/A      5   3  91 CALM      30.11F
W YELLOWSTONE  NOT AVBL

$$
WYZ002>013-054>058-071-098>099-180200-
NORTHERN WYOMING

CITY           SKY/WX    TMP DP  RH WIND       PRES   REMARKS
JACKSON        CLEAR      3   0  85 CALM      30.16F
CODY           FAIR      13   6  74 CALM      29.93F
GREYBULL       FAIR       3  -3  76 CALM      30.00F
WORLAND        FAIR      12   6  77 NE3       29.98S
SHERIDAN       FAIR      22  14  71 CALM      29.89R
BUFFALO        FAIR      39  20  46 W3        29.91R
GILLETTE       FAIR      38  22  52 SW18      29.90S WCI  28
HULETT         FAIR      37  16  41 SW9       29.90S WCI  31
NEWCASTLE      FAIR      28  19  69 W6        29.94S WCI  22

$$
WYZ014>020-022>026-101>103-180200-
CENTRAL WYOMING

CITY           SKY/WX    TMP DP  RH WIND       PRES   REMARKS
BIG PINEY      FAIR      -5 -10  79 NE3       30.15S
PINEDALE       FAIR      -4  -9  77 W3        30.15S
DUBOIS         NOT AVBL
LANDER         FAIR      15   7  70 CALM      30.06S
RIVERTON       FAIR       5   0  79 NW5       30.08S WCI  -4
CASPER         FAIR      31  13  47 SW22G31   30.01S WCI  18
DOUGLAS        FAIR      36  14  40 NW12      29.98R WCI  28

$$
WYZ021-027>030-104>119-180200-
SOUTHERN WYOMING

CITY           SKY/WX    TMP DP  RH WIND       PRES   REMARKS
EVANSTON       FAIR      17   6  62 SE5       30.13S WCI  10
ROCK SPRINGS   FAIR       5  -2  72 CALM      30.15R
RAWLINS        FAIR      11   4  73 NE6       30.13S WCI   1
LARAMIE        FAIR      14   8  77 N8        30.07S WCI   3
CHEYENNE       FAIR      33  12  41 W9        30.00R WCI  25
TORRINGTON     FAIR      37   9  31 W10       29.96S WCI  30

$$




USA.gov is the U.S. government's official web portal to all federal, state and local government web resources and services.